This is the latest recevied weather packets stored in our database for station/object W8AN. If no packets are shown the sender has not sent any weather packets the latest 10 day(s).
| Time | Temp. | Humidity | Pressure | Rain* | Wind** | Luminosity | Snow |
|---|---|---|---|---|---|---|---|
| 1778127664 | 8.33° C | 73% | 4268.3 hPa | 0 mm | - | 0 W/m² | - |
| 1778127361 | 8.89° C | 72% | 4268.3 hPa | 0 mm | - | 0 W/m² | - |
| 1778127058 | 8.89° C | 71% | 4268.3 hPa | 0 mm | - | 0 W/m² | - |
| 1778126755 | 8.89° C | 71% | 4268.6 hPa | 0 mm | - | 0 W/m² | - |
| 1778126452 | 8.89° C | 70% | 4268.4 hPa | 0 mm | - | 0 W/m² | - |
| 1778126147 | 8.89° C | 70% | 4268.5 hPa | 0 mm | - | 0 W/m² | - |
| 1778125844 | 8.89° C | 69% | 4268.3 hPa | 0 mm | - | 0 W/m² | - |
| 1778125540 | 8.89° C | 67% | 4268.4 hPa | 0 mm | - | 0 W/m² | - |
| 1778125238 | 8.89° C | 67% | 4268.4 hPa | 0 mm | - | 0 W/m² | - |
| 1778124936 | 8.89° C | 68% | 4268.3 hPa | 0 mm | - | 0 W/m² | - |
| 1778124633 | 9.44° C | 67% | 4268.5 hPa | 0 mm | - | 0 W/m² | - |
| 1778124330 | 9.44° C | 66% | 4268.5 hPa | 0 mm | - | 0 W/m² | - |
| 1778124026 | 9.44° C | 65% | 4268.5 hPa | 0 mm | - | 0 W/m² | - |
| 1778123722 | 9.44° C | 68% | 4268.7 hPa | 0 mm | - | 0 W/m² | - |
| 1778123420 | 9.44° C | 69% | 4268.7 hPa | 0 mm | - | 0 W/m² | - |
| 1778123117 | 9.44° C | 69% | 4268.8 hPa | 0 mm | - | 0 W/m² | - |
| 1778122815 | 10° C | 69% | 4268.7 hPa | 0 mm | - | 0 W/m² | - |
| 1778122511 | 10° C | 65% | 4268.7 hPa | 0 mm | - | 0 W/m² | - |
| 1778122209 | 10° C | 65% | 4268.7 hPa | 0 mm | - | 0 W/m² | - |
| 1778121906 | 10° C | 68% | 4268.6 hPa | 0 mm | - | 0 W/m² | - |
| 1778121602 | 10° C | 67% | 4268.7 hPa | 0 mm | - | 0 W/m² | - |
| 1778121299 | 10° C | 66% | 4268.7 hPa | 0 mm | - | 0 W/m² | - |
| 1778120996 | 10° C | 66% | 4268.9 hPa | 0 mm | - | 0 W/m² | - |
| 1778120693 | 10° C | 65% | 4268.8 hPa | 0 mm | - | 0 W/m² | - |
| 1778120388 | 10° C | 64% | 4268.6 hPa | 0 mm | - | 0 W/m² | - |
* Rain latest hour (hover to see other rain measurements)
** Current wind speed in m/s (hover to see current wind gust speed)